Weather History for Alamosa, CO

Change the Weather History Date:

Wednesday, April 25, 2012

  Actual Average Record
Temperature  
Mean Temperature 53 °F 45 °F  
Max Temperature 77 °F 62 °F 77 °F (1949)
Min Temperature 29 °F 27 °F 11 °F (1950)
Degree Days  
Heating Degree Days 12 20  
Month to date heating degree days 478 598  
Since 1 July heating degree days 7429 7904  
Cooling Degree Days 0 0  
Month to date cooling degree days 0 0  
Year to date cooling degree days 0 0  
Growing Degree Days 4 (Base 50)    
Moisture  
Dew Point 21 °F    
Average Humidity 32    
Maximum Humidity 54    
Minimum Humidity 9    
Precipitation  
Precipitation 0.00 in 0.02 in 0.30 in (1986)
Month to date precipitation 0.13 0.49  
Year to date precipitation 0.57 1.54  
Snow  
Snow 0.00 in 0.10 in 1.40 in (1948)
Month to date snowfall 1.2 3.2  
Since 1 July snowfall 18.7 26.3  
Snow Depth 0.00 in    
Sea Level Pressure  
Sea Level Pressure 29.95 in    
Wind  
Wind Speed 8 mph (West)    
Max Wind Speed 31 mph    
Max Gust Speed 38 mph    
Visibility 10 miles    
Events      
T = Trace of Precipitation, MM = Missing Value Source: NWS Daily Summary

Daily Weather History Graph

Daily Weather History Graph

Search for Another Location

Airport:

Trip Planner

Search our weather history database for the weather conditions in past years. The results will help you decide how hot, cold, wet, or windy it might be!

Date:

Astronomy

Apr. 25, 2012 Rise Set
Actual Time 6:14 AM MDT 7:48 PM MDT
Civil Twilight 5:47 AM MDT 8:16 PM MDT
Nautical Twilight 5:13 AM MDT 8:49 PM MDT
Astronomical Twilight 4:38 AM MDT 9:24 PM MDT
Moon 9:05 AM MDT (4/25) 11:53 PM MDT (4/25)
Length of Visible Light 14h 28m
Length of Day
13h 33m
Waxing Crescent, 17% of the Moon is Illuminated
Apr 25
Waxing Crescent
Apr 29
First Quarter
May 5
Full
May 12
Last Quarter
May 20
New

Hourly Weather History & Observations

Time (MDT) Temp. Windchill Dew Point Humidity Pressure Visibility Wind Dir Wind Speed Gust Speed Precip Events Conditions
12:52 AM 44.6 °F 43.1 °F 17.6 °F 34% 30.12 in 10.0 mi West 3.5 mph - N/A   Clear
1:52 AM 36.0 °F 32.1 °F 17.1 °F 46% 29.88 in 10.0 mi ESE 4.6 mph - N/A   Clear
2:52 AM 37.9 °F 34.4 °F 19.0 °F 47% 29.90 in 10.0 mi SSW 4.6 mph - N/A   Clear
3:52 AM 33.1 °F 27.7 °F 16.0 °F 50% 29.94 in 10.0 mi West 5.8 mph - N/A   Clear
4:52 AM 34.0 °F 31.0 °F 18.0 °F 52% 29.93 in 10.0 mi NNE 3.5 mph - N/A   Clear
5:52 AM 30.2 °F 26.7 °F 15.8 °F 55% 30.15 in 10.0 mi Variable 3.5 mph - N/A   Clear
6:52 AM 32.0 °F 28.7 °F 18.0 °F 56% 29.98 in 10.0 mi WSW 3.5 mph - N/A   Clear
7:52 AM 43.0 °F - 23.0 °F 45% 29.97 in 10.0 mi Calm Calm - N/A   Clear
8:52 AM 55.0 °F - 18.0 °F 23% 29.98 in 10.0 mi Calm Calm - N/A   Clear
9:52 AM 63.0 °F - 18.0 °F 18% 29.96 in 10.0 mi Variable 4.6 mph - N/A   Clear
10:52 AM 68.0 °F - 10.9 °F 11% 29.93 in 10.0 mi Calm Calm - N/A   Clear
11:52 AM 72.0 °F - 12.0 °F 10% 29.90 in 10.0 mi Calm Calm - N/A   Clear
12:52 PM 73.0 °F - 12.9 °F 10% 29.89 in 10.0 mi Variable 3.5 mph - N/A   Clear
1:52 PM 75.9 °F - 16.0 °F 10% 29.90 in 10.0 mi NE 11.5 mph - N/A   Scattered Clouds
2:52 PM 73.0 °F - 18.0 °F 12% 29.88 in 10.0 mi Calm Calm - N/A   Mostly Cloudy
3:52 PM 75.0 °F - 21.9 °F 14% 29.88 in 10.0 mi West 17.3 mph 24.2 mph N/A   Overcast
4:52 PM 73.0 °F - 25.0 °F 17% 29.89 in 10.0 mi West 21.9 mph 29.9 mph N/A   Clear
5:52 PM 68.0 °F - 28.9 °F 23% 29.96 in 10.0 mi West 21.9 mph 31.1 mph N/A   Clear
6:52 PM 63.0 °F - 32.0 °F 31% 29.99 in 10.0 mi WSW 27.6 mph 38.0 mph N/A   Mostly Cloudy
7:52 PM 60.1 °F - 33.1 °F 36% 29.98 in 10.0 mi WSW 16.1 mph - N/A   Clear
8:52 PM 60.1 °F - 30.9 °F 33% 29.96 in 10.0 mi West 11.5 mph - N/A   Overcast
9:52 PM 59.0 °F - 30.0 °F 33% 29.96 in 10.0 mi NW 12.7 mph 19.6 mph N/A   Clear
10:52 PM 59.0 °F - 30.0 °F 33% 29.94 in 10.0 mi NNW 9.2 mph - N/A   Overcast
11:52 PM 57.9 °F - 30.9 °F 36% 29.93 in 10.0 mi NNW 10.4 mph - N/A   Mostly Cloudy